Weather History for Monte Argentario, Italy

Change the Weather History Date:

Saturday, May 25, 2013

  Actual Average Record
Temperature  
Mean Temperature 53 °F -  
Max Temperature 59 °F 71 °F 86 °F (2007)
Min Temperature 47 °F 57 °F 47 °F (2013)
Degree Days  
Heating Degree Days 12    
Growing Degree Days 3 (Base 50)    
Moisture  
Dew Point 40 °F    
Average Humidity 64    
Maximum Humidity 88    
Minimum Humidity 36    
Precipitation  
Precipitation 0.04 in - - ()
Sea Level Pressure  
Sea Level Pressure 29.77 in    
Wind  
Wind Speed 12 mph ()    
Max Wind Speed 22 mph    
Max Gust Speed -    
Visibility 7.8 miles    
Events Rain , Thunderstorm    
Averages and records for this station are not official NWS values.
T = Trace of Precipitation, MM = Missing Value Source: Averaged Metar Reports

Daily Weather History Graph

Daily Weather History Graph

Search for Another Location

Airport:

Trip Planner

Search our weather history database for the weather conditions in past years. The results will help you decide how hot, cold, wet, or windy it might be!

Date:

Astronomy

May. 25, 2013 Rise Set
Actual Time 5:45 AM CEST 8:39 PM CEST
Civil Twilight 5:11 AM CEST 9:13 PM CEST
Nautical Twilight 4:29 AM CEST 9:55 PM CEST
Astronomical Twilight 3:40 AM CEST 10:45 PM CEST
Moon 9:09 PM CEST (5/25) 5:56 AM CEST (5/25)
Length of Visible Light 16h 01m
Length of Day
14h 54m
Full, 100% of the Moon is Illuminated
May 25
Full
May 31
Last Quarter
Jun 8
New
Jun 16
First Quarter
Jun 23
Full

Hourly Weather History & Observations

Time (CEST) Temp. Dew Point Humidity Pressure Visibility Wind Dir Wind Speed Gust Speed Precip Events Conditions
12:55 AM 48.2 °F 37.4 °F 66% 29.80 in 6.2 mi NNE 15.0 mph - N/A   Partly Cloudy
1:55 AM 48.2 °F 37.4 °F 66% 29.80 in 6.2 mi NNE 9.2 mph - N/A   Partly Cloudy
2:00 AM 49 °F 37 °F 54%  in 12 mi NNE 9.2 mph - -   Scattered Clouds
2:55 AM 48.2 °F 37.4 °F 66% 29.80 in - ENE 8.1 mph - N/A   Clear
3:55 AM 48.2 °F 39.2 °F 71% 29.80 in - ENE 5.8 mph - N/A   Clear
4:55 AM 48.2 °F 39.2 °F 71% 29.80 in - NE 9.2 mph - N/A   Clear
5:00 AM 48 °F 39 °F 61%  in 12 mi NE 9.2 mph - -   Mostly Cloudy
5:55 AM 48.2 °F 37.4 °F 66% 29.77 in 6.2 mi ENE 11.5 mph - N/A   Scattered Clouds
6:55 AM 48.2 °F 37.4 °F 66% 29.77 in - SSE 13.8 mph - N/A   Clear
7:55 AM 50.0 °F 39.2 °F 66% 29.77 in - South 8.1 mph - N/A   Clear
8:00 AM 50 °F 39 °F 55%  in 12 mi South 8.1 mph - -   Scattered Clouds
8:55 AM 51.8 °F 41.0 °F 67% 29.77 in - South 11.5 mph - N/A   Clear
9:55 AM 51.8 °F 41.0 °F 67% 29.77 in 6.2 mi South 9.2 mph - N/A   Scattered Clouds
10:55 AM 53.6 °F 44.6 °F 72% 29.80 in 6.2 mi SSW 10.4 mph - N/A   Scattered Clouds
11:00 AM 54 °F 44 °F 60%  in 12 mi SSW 10.4 mph - -   Partly Cloudy
11:55 AM 57.2 °F 44.6 °F 63% 29.77 in 6.2 mi SSW 19.6 mph - N/A   Partly Cloudy
12:55 PM 59.0 °F 46.4 °F 63% 29.77 in 6.2 mi SSW 18.4 mph - N/A   Partly Cloudy
1:55 PM 53.6 °F 46.4 °F 77% 29.77 in 6.2 mi SSW 17.3 mph - N/A   Partly Cloudy
2:00 PM 54 °F 46 °F 66%  in 11 mi SSW 17.3 mph - -   Overcast
2:55 PM 51.8 °F 46.4 °F 82% 29.77 in 6.2 mi SSW 19.6 mph - N/A   Partly Cloudy
3:55 PM 51.8 °F 46.4 °F 82% 29.77 in 6.2 mi SSW 15.0 mph - N/A Rain Light Rain Showers
4:55 PM 51.8 °F 48.2 °F 88% 29.77 in 6.2 mi SSW 20.7 mph - N/A   Partly Cloudy
5:00 PM 51 °F 48 °F 84%  in 11 mi SSW 20.7 mph - - Rain Light Rain Showers
5:55 PM 53.6 °F 41.0 °F 62% 29.74 in 6.2 mi South 20.7 mph - N/A   Partly Cloudy
6:55 PM 53.6 °F 35.6 °F 51% 29.74 in 6.2 mi South 20.7 mph - N/A   Partly Cloudy
7:55 PM 51.8 °F 33.8 °F 50% 29.74 in 6.2 mi South 18.4 mph - N/A   Partly Cloudy
8:00 PM 52 °F 33 °F 36%  in 11 mi South 18.4 mph - -   Partly Cloudy
8:55 PM 50.0 °F 33.8 °F 54% 29.74 in 6.2 mi South 21.9 mph - N/A   Partly Cloudy
9:55 PM 48.2 °F 33.8 °F 58% 29.74 in 6.2 mi South 18.4 mph - N/A   Partly Cloudy
10:55 PM 48.2 °F 33.8 °F 58% 29.77 in 6.2 mi South 18.4 mph - N/A   Partly Cloudy
11:00 PM 49 °F 34 °F 44%  in 12 mi South 18.4 mph - -   Partly Cloudy
11:23 PM 48.2 °F 33.8 °F 58% 29.77 in 6.2 mi North 11.5 mph - N/A Thunderstorm Thunderstorm
11:55 PM 48.2 °F 39.2 °F 71% 29.77 in 6.2 mi North 6.9 mph - N/A Rain , Thunderstorm Light Thunderstorms and Rain